SCO15QR EGPH-EGNS

Flight info

Callsign SCO15QR
Flight time 0h 32m
Altitude 19000
Route TLA N864 DCS/N0394F180 DCT IOM
Aircraft A320/M-SDE3FGHIRWY/LB1

Departure

Time 2026-05-05 19:26
Airport Edinburgh Airport (EGPH)

Arrival

Time 2026-05-05 19:59
Airport Isle of Man Airport (EGNS)
Time Latitude Longitude Altitude Speed Heading
2026-05-05 19:08 55.94750 -3.35489 117 ft 0 kts 208°
2026-05-05 19:17 55.94751 -3.35488 116 ft 1 kts 208°
2026-05-05 19:18 55.94766 -3.35473 112 ft 3 kts 208°
2026-05-05 19:18 55.94782 -3.35457 112 ft 3 kts 223°
2026-05-05 19:18 55.94793 -3.35430 115 ft 3 kts 266°
2026-05-05 19:18 55.94792 -3.35408 113 ft 3 kts 289°
2026-05-05 19:19 55.94788 -3.35390 115 ft 0 kts 298°
2026-05-05 19:19 55.94788 -3.35389 115 ft 0 kts 298°
2026-05-05 19:21 55.94800 -3.35426 112 ft 6 kts 298°
2026-05-05 19:21 55.94816 -3.35481 113 ft 6 kts 298°
2026-05-05 19:22 55.94852 -3.35596 114 ft 11 kts 298°
2026-05-05 19:22 55.94888 -3.35713 113 ft 10 kts 298°
2026-05-05 19:22 55.94939 -3.35847 116 ft 15 kts 326°
2026-05-05 19:22 55.95037 -3.35837 116 ft 14 kts 342°
2026-05-05 19:23 55.95094 -3.36002 115 ft 19 kts 291°
2026-05-05 19:23 55.95135 -3.36220 115 ft 18 kts 278°
2026-05-05 19:23 55.95077 -3.36450 114 ft 28 kts 239°
2026-05-05 19:23 55.94970 -3.36764 113 ft 31 kts 238°
2026-05-05 19:24 55.94856 -3.37099 115 ft 33 kts 238°
2026-05-05 19:24 55.94745 -3.37427 111 ft 25 kts 239°
2026-05-05 19:24 55.94660 -3.37682 112 ft 21 kts 238°
2026-05-05 19:24 55.94600 -3.37861 113 ft 15 kts 239°
2026-05-05 19:25 55.94637 -3.37997 115 ft 13 kts 329°
2026-05-05 19:25 55.94721 -3.38046 115 ft 12 kts 25°
2026-05-05 19:25 55.94748 -3.37991 114 ft 0 kts 59°
2026-05-05 19:25 55.94815 -3.37791 114 ft 60 kts 58°
2026-05-05 19:26 55.95195 -3.36663 119 ft 146 kts 62°
2026-05-05 19:26 55.95728 -3.35055 944 ft 156 kts 62°
2026-05-05 19:26 55.96447 -3.33514 2032 ft 165 kts 43°
2026-05-05 19:26 55.97384 -3.32139 2433 ft 191 kts 43°
2026-05-05 19:27 55.98436 -3.30475 2975 ft 213 kts 44°
2026-05-05 19:27 55.99583 -3.28594 3585 ft 235 kts 44°
2026-05-05 19:27 56.00815 -3.26551 4439 ft 246 kts 43°
2026-05-05 19:27 56.02087 -3.24471 5479 ft 250 kts 41°
2026-05-05 19:28 56.03394 -3.22369 6478 ft 256 kts 39°
2026-05-05 19:28 56.04686 -3.20086 7301 ft 269 kts 52°
2026-05-05 19:28 56.05348 -3.16906 8117 ft 285 kts 81°
2026-05-05 19:28 56.05309 -3.13302 9041 ft 293 kts 94°
2026-05-05 19:29 56.04841 -3.09741 10008 ft 300 kts 115°
2026-05-05 19:29 56.03512 -3.06865 10824 ft 305 kts 145°
2026-05-05 19:29 56.01662 -3.04849 11356 ft 323 kts 150°
2026-05-05 19:29 55.99707 -3.02582 11679 ft 347 kts 148°
2026-05-05 19:30 55.97536 -3.00435 11931 ft 367 kts 163°
2026-05-05 19:30 55.94987 -2.99767 12456 ft 374 kts 184°
2026-05-05 19:30 55.92426 -3.00507 13230 ft 374 kts 199°
2026-05-05 19:30 55.89997 -3.02164 14049 ft 374 kts 208°
2026-05-05 19:31 55.87680 -3.04275 14782 ft 376 kts 211°
2026-05-05 19:31 55.85382 -3.06547 15498 ft 379 kts 212°
2026-05-05 19:31 55.83058 -3.08803 16193 ft 383 kts 211°
2026-05-05 19:31 55.80674 -3.10974 16864 ft 387 kts 209°
2026-05-05 19:32 55.78232 -3.13049 17522 ft 391 kts 208°
2026-05-05 19:32 55.75745 -3.15051 18187 ft 395 kts 207°
2026-05-05 19:32 55.73217 -3.17018 18782 ft 398 kts 206°
2026-05-05 19:32 55.70673 -3.18975 19036 ft 400 kts 206°
2026-05-05 19:33 55.68099 -3.20962 19109 ft 410 kts 206°
2026-05-05 19:33 55.65435 -3.23045 19116 ft 427 kts 206°
2026-05-05 19:33 55.62700 -3.25203 19115 ft 433 kts 206°
2026-05-05 19:33 55.59945 -3.27381 19112 ft 435 kts 206°
2026-05-05 19:34 55.57177 -3.29570 19114 ft 435 kts 206°
2026-05-05 19:34 55.54413 -3.31748 19114 ft 435 kts 206°
2026-05-05 19:34 55.51598 -3.33717 19109 ft 437 kts 200°
2026-05-05 19:35 55.45550 -3.35226 19107 ft 444 kts 182°
2026-05-05 19:35 55.42461 -3.35166 19104 ft 444 kts 182°
2026-05-05 19:35 55.39372 -3.35110 19105 ft 444 kts 182°
2026-05-05 19:35 55.36281 -3.35059 19100 ft 444 kts 182°
2026-05-05 19:36 55.33194 -3.35013 19100 ft 444 kts 182°
2026-05-05 19:36 55.30100 -3.34970 19100 ft 444 kts 182°
2026-05-05 19:36 55.27012 -3.34926 19102 ft 444 kts 182°
2026-05-05 19:36 55.23921 -3.34881 19101 ft 445 kts 182°
2026-05-05 19:37 55.20820 -3.34834 19113 ft 445 kts 182°
2026-05-05 19:37 55.17771 -3.34785 19097 ft 444 kts 182°
2026-05-05 19:37 55.14646 -3.34736 19099 ft 444 kts 182°
2026-05-05 19:37 55.11545 -3.34686 19097 ft 444 kts 182°
2026-05-05 19:38 55.08454 -3.34634 19091 ft 444 kts 182°
2026-05-05 19:38 55.05361 -3.34582 19085 ft 444 kts 182°
2026-05-05 19:38 55.02274 -3.34531 19095 ft 444 kts 182°
2026-05-05 19:38 54.99187 -3.34482 19081 ft 444 kts 182°
2026-05-05 19:39 54.96095 -3.34435 19081 ft 444 kts 182°
2026-05-05 19:39 54.93006 -3.34388 19075 ft 444 kts 182°
2026-05-05 19:39 54.89920 -3.34338 19075 ft 444 kts 182°
2026-05-05 19:39 54.86824 -3.34290 19071 ft 444 kts 182°
2026-05-05 19:40 54.83741 -3.34245 19073 ft 444 kts 182°
2026-05-05 19:40 54.80646 -3.34201 19067 ft 444 kts 182°
2026-05-05 19:40 54.77584 -3.34566 19065 ft 441 kts 192°
2026-05-05 19:40 54.74626 -3.35871 19069 ft 437 kts 202°
2026-05-05 19:41 54.71886 -3.38076 19066 ft 434 kts 213°
2026-05-05 19:41 54.69444 -3.41101 19060 ft 430 kts 223°
2026-05-05 19:41 54.67372 -3.44802 19057 ft 427 kts 233°
2026-05-05 19:42 54.64009 -3.52310 19050 ft 427 kts 234°
2026-05-05 19:42 54.62189 -3.56354 18840 ft 426 kts 234°
2026-05-05 19:42 54.60366 -3.60380 18585 ft 425 kts 234°
2026-05-05 19:42 54.58658 -3.64512 18238 ft 420 kts 243°
2026-05-05 19:43 54.57487 -3.69100 17860 ft 417 kts 249°
2026-05-05 19:43 54.56411 -3.73728 17468 ft 415 kts 250°
2026-05-05 19:43 54.55342 -3.78330 17080 ft 413 kts 250°
2026-05-05 19:43 54.54276 -3.82910 16679 ft 410 kts 250°
2026-05-05 19:44 54.53214 -3.87454 16288 ft 408 kts 250°
2026-05-05 19:44 54.52152 -3.91978 15901 ft 406 kts 250°
2026-05-05 19:44 54.51095 -3.96460 15482 ft 404 kts 250°
2026-05-05 19:44 54.50049 -4.00879 15050 ft 393 kts 249°
2026-05-05 19:45 54.49030 -4.05164 14632 ft 382 kts 249°
2026-05-05 19:45 54.48033 -4.09335 14221 ft 372 kts 249°
2026-05-05 19:45 54.47055 -4.13406 13809 ft 364 kts 249°
2026-05-05 19:45 54.46092 -4.17388 13346 ft 357 kts 249°
2026-05-05 19:46 54.45160 -4.21229 12896 ft 350 kts 249°
2026-05-05 19:46 54.44231 -4.25049 12451 ft 343 kts 249°
2026-05-05 19:46 54.43320 -4.28792 12014 ft 337 kts 249°
2026-05-05 19:46 54.42437 -4.32415 11578 ft 320 kts 249°
2026-05-05 19:47 54.41597 -4.35841 11150 ft 303 kts 249°
2026-05-05 19:47 54.40798 -4.39076 10735 ft 289 kts 249°
2026-05-05 19:47 54.40476 -4.40374 10554 ft 284 kts 249°
2026-05-05 19:48 54.39772 -4.43213 10182 ft 281 kts 249°
2026-05-05 19:48 54.39005 -4.46302 9742 ft 280 kts 249°
2026-05-05 19:48 54.38250 -4.49343 9290 ft 273 kts 249°
2026-05-05 19:48 54.37512 -4.52288 8788 ft 267 kts 246°
2026-05-05 19:49 54.36454 -4.54871 8263 ft 263 kts 231°
2026-05-05 19:49 54.35250 -4.57171 7748 ft 256 kts 229°
2026-05-05 19:49 54.34068 -4.59416 7239 ft 251 kts 229°
2026-05-05 19:49 54.32917 -4.61644 6747 ft 248 kts 229°
2026-05-05 19:50 54.31797 -4.63871 6231 ft 246 kts 229°
2026-05-05 19:50 54.30609 -4.65954 5749 ft 242 kts 221°
2026-05-05 19:50 54.29340 -4.67825 5444 ft 240 kts 219°
2026-05-05 19:50 54.28073 -4.69661 5184 ft 237 kts 219°
2026-05-05 19:51 54.26824 -4.71477 4927 ft 234 kts 219°
2026-05-05 19:51 54.25590 -4.73279 4665 ft 232 kts 219°
2026-05-05 19:51 54.24371 -4.75053 4402 ft 227 kts 219°
2026-05-05 19:51 54.23190 -4.76756 4131 ft 218 kts 219°
2026-05-05 19:52 54.22056 -4.78376 3902 ft 209 kts 219°
2026-05-05 19:52 54.20955 -4.79930 3649 ft 202 kts 219°
2026-05-05 19:52 54.19878 -4.81430 3390 ft 197 kts 219°
2026-05-05 19:52 54.18811 -4.82891 3134 ft 197 kts 219°
2026-05-05 19:53 54.17737 -4.84336 2870 ft 196 kts 219°
2026-05-05 19:53 54.16677 -4.85732 2613 ft 188 kts 219°
2026-05-05 19:53 54.15559 -4.86828 2318 ft 185 kts 198°
2026-05-05 19:53 54.14318 -4.87294 2079 ft 180 kts 190°
2026-05-05 19:54 54.13082 -4.87644 2033 ft 179 kts 190°
2026-05-05 19:54 54.11854 -4.87968 2035 ft 180 kts 189°
2026-05-05 19:54 54.10618 -4.88134 2034 ft 178 kts 169°
2026-05-05 19:54 54.09494 -4.87298 2038 ft 176 kts 146°
2026-05-05 19:55 54.08474 -4.86146 2038 ft 176 kts 143°
2026-05-05 19:55 54.07533 -4.84829 2035 ft 174 kts 127°
2026-05-05 19:55 54.06938 -4.83087 2037 ft 169 kts 105°
2026-05-05 19:55 54.06756 -4.81151 2034 ft 162 kts 84°
2026-05-05 19:56 54.06890 -4.79305 2047 ft 155 kts 77°
2026-05-05 19:56 54.07036 -4.77528 1938 ft 144 kts 77°
2026-05-05 19:56 54.07170 -4.75874 1769 ft 139 kts 76°
2026-05-05 19:56 54.07246 -4.74247 1551 ft 138 kts 85°
2026-05-05 19:57 54.07248 -4.72627 1362 ft 136 kts 83°
2026-05-05 19:57 54.07298 -4.71008 1149 ft 137 kts 78°
2026-05-05 19:57 54.07445 -4.69422 904 ft 135 kts 72°
2026-05-05 19:57 54.07645 -4.67867 676 ft 137 kts 72°
2026-05-05 19:58 54.07841 -4.66310 423 ft 134 kts 73°
2026-05-05 19:58 54.08026 -4.64776 243 ft 131 kts 71°
2026-05-05 19:58 54.08214 -4.63294 52 ft 129 kts 74°
2026-05-05 19:58 54.08362 -4.62119 41 ft 69 kts 78°
2026-05-05 19:59 54.08429 -4.61571 42 ft 27 kts 78°
2026-05-05 19:59 54.08490 -4.61431 42 ft 13 kts 356°
2026-05-05 19:59 54.08537 -4.61553 41 ft 14 kts 283°
2026-05-05 19:59 54.08546 -4.61720 42 ft 14 kts 274°
2026-05-05 20:00 54.08550 -4.61898 43 ft 19 kts 266°
2026-05-05 20:00 54.08522 -4.62143 47 ft 22 kts 257°
2026-05-05 20:00 54.08490 -4.62394 48 ft 22 kts 257°
2026-05-05 20:00 54.08452 -4.62682 44 ft 28 kts 257°
2026-05-05 20:01 54.08429 -4.62876 43 ft 12 kts 257°
2026-05-05 20:01 54.08434 -4.62981 43 ft 8 kts 323°
2026-05-05 20:01 54.08510 -4.63012 44 ft 14 kts 349°
2026-05-05 20:01 54.08594 -4.63069 43 ft 14 kts 313°
2026-05-05 20:02 54.08607 -4.63197 45 ft 10 kts 206°
2026-05-05 20:02 54.08557 -4.63262 45 ft 9 kts 261°
2026-05-05 20:02 54.08591 -4.63340 45 ft 9 kts 317°
2026-05-05 20:02 54.08582 -4.63410 44 ft 7 kts 203°
2026-05-05 20:03 54.08555 -4.63379 44 ft 4 kts 80°
2026-05-05 20:03 54.08571 -4.63348 45 ft 3 kts 44°
2026-05-05 20:03 54.08584 -4.63326 45 ft 2 kts 45°
2026-05-05 20:03 54.08586 -4.63322 45 ft 0 kts 45°